Regional Weather Roundup
Issued by NWS Memphis, TN

Home | Current Version | Previous Version | Text Only | Print | Product List | Glossary On
Versions: 1 2 3 4 5 6 7 8 9 10 11 12 13 14 15 16 17 18 19 20 21 22 23 24 25 26 27 28 29 30 31 32 33 34 35 36 37 38 39 40 41 42 43 44 45 46 47 48 49 50
000
ASUS44 KMEG 021000
RWRMEG
MEMPHIS CWA HOURLY WEATHER ROUNDUP
NATIONAL WEATHER SERVICE MEMPHIS TN
500 AM CDT THU JUL 02 2015

...WEST TENNESSEE...

CITY           SKY/WX    TMP DP  RH WIND       PRES   REMARKS
MEMPHIS INTL   CLOUDY    79  72  79 SW9       29.92R
NWS MEMPHIS      N/A     79 N/A N/A MISG        N/A
JACKSON        CLOUDY    76  71  85 SW9       29.88F
LEXINGTON      CLEAR     73  72  94 SW8       29.88S
DYERSBURG        N/A    N/A N/A N/A MISG        N/A
PARIS          PTCLDY    72  72 100 CALM      29.86F


...EASTERN ARKANSAS...

CITY           SKY/WX    TMP DP  RH WIND       PRES   REMARKS
JONESBORO      LGT RAIN  77  74  90 W7        29.88R
WEST MEMPHIS   CLOUDY    78  74  87 SW7       29.90R
BATESVILLE     CLOUDY    75  72  88 CALM      29.88R
WALNUT RIDGE   CLOUDY    75  72  88 W8        29.90R
BLYTHEVILLE    CLOUDY    79  74  84 SW9G18    29.88R
SEARCY         CLOUDY    77  73  87 SE3       29.91R
STUTTGART      CLOUDY    79  70  73 SW13      29.89S
PINE BLUFF     CLOUDY    77  69  76 SW12      29.91S
MONTICELLO     CLOUDY    76  71  85 SW8       29.95S


...NORTH MISSISSIPPI...

CITY           SKY/WX    TMP DP  RH WIND       PRES   REMARKS
TUPELO         CLOUDY    77  72  84 W7        29.94S
TUNICA         CLOUDY    77  72  83 S7        29.93R
CLARKSDALE     CLOUDY    77  75  94 S8        29.94R
GREENWOOD      CLOUDY    75  71  87 SW9       29.96F
COLUMBUS       CLOUDY    74  71  90 SW6       29.96S
STARKVILLE     FAIR      72  70  94 SW5       29.98S
GOLDEN TRIANGL CLOUDY    73  70  88 SW7       29.96S


...SOUTHEAST MISSOURI...

CITY           SKY/WX    TMP DP  RH WIND       PRES   REMARKS
WEST PLAINS    LGT RAIN  70  66  87 S12       29.87F
CAPE GIRARDEAU CLOUDY    70  68  93 S5        29.85R


...NORTHWEST ALABAMA...

CITY           SKY/WX    TMP DP  RH WIND       PRES   REMARKS
MUSCLE SHOALS  MOCLDY    76  70  82 W7        29.95S


...MIDDLE TENNESSEE...

CITY           SKY/WX    TMP DP  RH WIND       PRES   REMARKS
NASHVILLE      LGT RAIN  71  71 100 VRB3      29.90F FOG
CLARKSVILLE    TSTM      70  68  93 NW14G24   29.91R FOG
COLUMBIA       CLEAR     73  73 100 SW8       29.89F


...WESTERN KENTUCKY...

CITY           SKY/WX    TMP DP  RH WIND       PRES   REMARKS
PADUCAH        LGT RAIN  70  67  90 VRB6      29.85S
FORT CAMPBELL  TSTM      69  67  94 W3        29.90R FOG


...CENTRAL ARKANSAS...

CITY           SKY/WX    TMP DP  RH WIND       PRES   REMARKS
LITTLE ROCK    CLOUDY    79  69  71 SW10      29.88R


SKY/WX REPORTED AS FAIR MEANS FEW OR NO CLOUDS BELOW
12 THOUSAND FEET.



USA.gov is the U.S. government's official web portal to all federal, state and local government web resources and services.